TimeEDT,TemperatureF,Dew PointF,Humidity,Sea Level PressureIn,VisibilityMPH,Wind Direction,Wind SpeedMPH,Gust SpeedMPH,PrecipitationIn,Events,Conditions,WindDirDegrees,DateUTC
12:53 AM,53.1,50.0,89,29.95,6.0,Calm,Calm,-,N/A,,Clear,0,2013-05-08 04:53:00
1:53 AM,52.0,50.0,93,29.94,7.0,Calm,Calm,-,N/A,,Clear,0,2013-05-08 05:53:00
2:53 AM,54.0,51.1,90,29.91,9.0,North,4.6,-,N/A,,Clear,350,2013-05-08 06:53:00
3:53 AM,54.0,51.1,90,29.92,10.0,North,3.5,-,N/A,,Scattered Clouds,350,2013-05-08 07:53:00
4:53 AM,55.0,52.0,89,29.91,10.0,NNE,3.5,-,N/A,,Overcast,20,2013-05-08 08:53:00
5:53 AM,55.9,52.0,87,29.91,10.0,North,5.8,-,N/A,,Overcast,350,2013-05-08 09:53:00
6:53 AM,55.9,52.0,87,29.92,10.0,NNW,3.5,-,N/A,,Overcast,340,2013-05-08 10:53:00
7:53 AM,60.1,53.1,78,29.94,10.0,NNE,6.9,-,N/A,,Overcast,30,2013-05-08 11:53:00
8:53 AM,62.1,55.0,78,29.94,10.0,NNE,9.2,-,N/A,,Overcast,30,2013-05-08 12:53:00
9:53 AM,63.0,54.0,72,29.96,10.0,ENE,10.4,-,N/A,,Clear,70,2013-05-08 13:53:00
10:20 AM,62.6,53.6,72,29.98,10.0,East,10.4,-,N/A,,Mostly Cloudy,80,2013-05-08 14:20:00
10:46 AM,64.4,55.4,73,29.98,10.0,ENE,9.2,-,N/A,,Scattered Clouds,70,2013-05-08 14:46:00
10:53 AM,64.0,54.0,70,29.98,10.0,ENE,9.2,-,N/A,,Scattered Clouds,60,2013-05-08 14:53:00
11:42 AM,64.4,53.6,68,29.99,10.0,ENE,8.1,-,N/A,,Mostly Cloudy,60,2013-05-08 15:42:00
11:53 AM,64.0,54.0,70,29.99,10.0,East,9.2,-,N/A,,Mostly Cloudy,80,2013-05-08 15:53:00
12:24 PM,64.4,53.6,68,29.99,10.0,ENE,4.6,-,N/A,,Scattered Clouds,70,2013-05-08 16:24:00
12:31 PM,64.4,53.6,68,29.99,10.0,NE,8.1,-,N/A,,Mostly Cloudy,50,2013-05-08 16:31:00
12:41 PM,64.4,53.6,68,29.99,10.0,ENE,6.9,-,N/A,,Scattered Clouds,60,2013-05-08 16:41:00
12:53 PM,64.9,54.0,68,29.99,10.0,ENE,6.9,-,N/A,,Mostly Cloudy,60,2013-05-08 16:53:00
1:01 PM,64.4,53.6,68,29.99,10.0,East,9.2,-,N/A,,Scattered Clouds,80,2013-05-08 17:01:00
1:53 PM,66.0,52.0,60,29.98,10.0,Calm,Calm,-,N/A,,Scattered Clouds,0,2013-05-08 17:53:00
2:53 PM,71.1,53.1,53,29.96,10.0,North,9.2,-,N/A,,Partly Cloudy,10,2013-05-08 18:53:00
3:53 PM,71.1,51.1,49,29.94,10.0,Calm,Calm,-,N/A,,Partly Cloudy,0,2013-05-08 19:53:00
4:53 PM,73.0,53.1,49,29.94,10.0,NW,6.9,-,N/A,,Scattered Clouds,320,2013-05-08 20:53:00
5:53 PM,72.0,52.0,49,29.94,10.0,NW,5.8,-,N/A,,Partly Cloudy,310,2013-05-08 21:53:00
6:53 PM,68.0,52.0,56,29.93,10.0,West,8.1,-,N/A,,Mostly Cloudy,260,2013-05-08 22:53:00
7:53 PM,64.0,53.1,67,29.94,10.0,West,4.6,-,N/A,,Clear,280,2013-05-08 23:53:00
8:06 PM,64.4,51.8,64,29.95,10.0,West,3.5,-,N/A,Thunderstorm,Clear,260,2013-05-09 00:06:00
8:21 PM,64.4,51.8,64,29.96,10.0,WSW,4.6,-,N/A,,Clear,250,2013-05-09 00:21:00
8:53 PM,64.0,52.0,65,29.96,10.0,Calm,Calm,-,N/A,,Partly Cloudy,0,2013-05-09 00:53:00
9:53 PM,57.9,52.0,81,29.97,10.0,Calm,Calm,-,N/A,,Scattered Clouds,0,2013-05-09 01:53:00
10:53 PM,59.0,52.0,78,29.99,10.0,Calm,Calm,-,N/A,,Partly Cloudy,0,2013-05-09 02:53:00
11:53 PM,55.9,52.0,87,29.99,10.0,Calm,Calm,-,N/A,,Clear,0,2013-05-09 03:53:00